This is the latest recevied weather packets stored in our database for station/object W6MAF. If no packets are shown the sender has not sent any weather packets the latest 10 day(s).
| Time | Temp. | Humidity | Pressure | Rain* | Wind** | Luminosity | Snow |
|---|---|---|---|---|---|---|---|
| 1788579323 | 20° C | 25% | - | 0 mm | 8.49 m/s, 190° | - | - |
| 1788579026 | 20° C | 25% | - | 0 mm | 8.94 m/s, 193° | - | - |
| 1788578728 | 20° C | 26% | - | 0 mm | 8.94 m/s, 198° | - | - |
| 1788578428 | 20° C | 26% | - | 0 mm | 9.39 m/s, 205° | - | - |
| 1788578129 | 20° C | 25% | - | 0 mm | 8.49 m/s, 207° | - | - |
| 1788577832 | 20° C | 25% | - | 0 mm | 8.49 m/s, 191° | - | - |
| 1788577534 | 20° C | 25% | - | 0 mm | 9.39 m/s, 208° | - | - |
| 1788577236 | 20° C | 25% | - | 0 mm | 9.39 m/s, 186° | - | - |
| 1788576939 | 20° C | 25% | - | 0 mm | 9.39 m/s, 201° | - | - |
| 1788576638 | 20° C | 25% | - | 0 mm | 8.49 m/s, 210° | - | - |
| 1788576340 | 20.56° C | 25% | - | 0 mm | 7.15 m/s, 194° | - | - |
| 1788576042 | 20.56° C | 25% | - | 0 mm | 8.49 m/s, 200° | - | - |
| 1788575744 | 20.56° C | 24% | - | 0 mm | 8.49 m/s, 212° | - | - |
| 1788575447 | 20.56° C | 23% | - | 0 mm | 8.05 m/s, 191° | - | - |
| 1788575149 | 20.56° C | 22% | - | 0 mm | 9.83 m/s, 193° | - | - |
| 1788574848 | 20.56° C | 22% | - | 0 mm | 7.6 m/s, 195° | - | - |
| 1788574551 | 21.11° C | 21% | - | 0 mm | 9.39 m/s, 181° | - | - |
| 1788574253 | 21.11° C | 21% | - | 0 mm | 11.62 m/s, 183° | - | - |
| 1788573955 | 21.11° C | 20% | - | 0 mm | 10.28 m/s, 186° | - | - |
| 1788573657 | 21.11° C | 19% | - | 0 mm | 8.94 m/s, 190° | - | - |
| 1788573059 | 21.67° C | 16% | - | 0 mm | 8.49 m/s, 184° | - | - |
| 1788572761 | 21.67° C | 15% | - | 0 mm | 8.49 m/s, 200° | - | - |
| 1788572463 | 22.22° C | 15% | - | 0 mm | 8.94 m/s, 207° | - | - |
| 1788572166 | 22.22° C | 14% | - | 0 mm | 8.94 m/s, 190° | - | - |
| 1788571868 | 22.22° C | 13% | - | 0 mm | 8.05 m/s, 191° | - | - |
* Rain latest hour (hover to see other rain measurements)
** Current wind speed in m/s (hover to see current wind gust speed)